Regional Weather Roundup
Issued by NWS Austin/San Antonio, TX

Home | Current Version | Previous Version | Text Only | Print | Product List | Glossary On
Versions: 1 2 3 4 5 6 7 8 9 10 11 12 13 14 15 16 17 18 19 20 21 22 23 24 25 26 27 28 29 30 31 32 33 34 35 36 37 38 39 40 41 42 43 44 45 46 47 48 49 50
145
ASUS44 KEWX 202210
RWREWX
SOUTH TEXAS REGIONAL WEATHER ROUNDUP
NATIONAL WEATHER SERVICE AUSTIN/SAN ANTONIO TX
500 PM CDT SUN OCT 20 2019

NOTE: "FAIR" INDICATED FEW OR NO CLOUDS BELOW 12,000 FEET WITH NO
SIGNIFICANT WEATHER AND/OR OBSTRUCTIONS TO VISIBILITY.

* - THESE STATIONS ARE NOT NWS OR FAA STATIONS...AND ARE NOT SUBJECT
    TO NWS AND FAA QUALITY CONTROL.

TXZ171-172-183>190-202300-
TEXAS HILL COUNTRY AND EDWARDS PLATEAU

CITY           SKY/WX    TMP DP  RH WIND       PRES   REMARKS
JUNCTION       LGT RAIN  92  59  33 S15G21    29.69S HX  91
*LLANO         SUNNY     90  66  45 S18       29.71S HX  92
BURNET         MOSUNNY   87  64  46 S15G24    29.72F
*HORSESHOE BAY SUNNY     90  64  43 S15G26    29.69F HX  91
*KERRVILLE     MOSUNNY   85  69  59 S15       29.73F
*FREDERICKSBRG PTSUNNY   85  65  50 S12G20    29.73F
*ROCKSPRINGS   MOSUNNY   86  63  45 S16G24    29.78F
*BOERNE        MOSUNNY   82  68  61 S8        29.74F
*CASTROVILLE   PTSUNNY   91  66  44 SE9       29.70F HX  93
HONDO          PTSUNNY   89  70  53 SE12      29.68F HX  94
*UVALDE        MOSUNNY   89  71  55 SE10      29.69F HX  94
DEL RIO        SUNNY     96  64  34 SE15      29.62F HX  98
LAUGHLIN AFB   SUNNY     94  64  37 S17G28    29.63F HX  96
SPOFFORD       MOSUNNY   93  65  39 SE8       29.59F HX  96
*EAGLE PASS    SUNNY     95  66  38 SE10G16   29.64F HX  98
CARRIZO SPRGS  PTSUNNY   95  68  41 S9G21     29.63F HX  99
*FAITH RANCH   MOSUNNY   95  70  43 SE17      29.64F HX 101
$$

TXZ173-191>194-202-209-217>225-228-202300-
CENTRAL AND SOUTH CENTRAL TEXAS

CITY           SKY/WX    TMP DP  RH WIND       PRES   REMARKS
GEORGETOWN     MOSUNNY   90  67  46 S17G24    29.69F HX  93
AUSTIN/BERGSTM MOSUNNY   93  69  45 S15       29.67F HX  98
AUSTIN/MABRY   MOSUNNY   92  66  42 S10G21    29.69F HX  94
*AUSTIN/EXEC   SUNNY     91  66  43 S12       29.68F HX  94
*LAGO VISTA    SUNNY     86  67  53 S13G21    29.71S
SAN MARCOS     PTSUNNY   92  71  50 S17       29.69F HX  98
NEW BRAUNFELS  MOSUNNY   93  69  45 S13       29.67F HX  98
RANDOLPH AFB   MOSUNNY   90  69  49 S15       29.69F HX  94
SEGUIN         MOSUNNY   89  69  51 S12       29.72F HX  93
KELLY FIELD    MOSUNNY   91  69  48 S10G21    29.67F HX  95
SAN ANTONIO    MOSUNNY   88  68  51 S13       29.70F HX  91
STINSON FIELD  PTSUNNY   91  69  48 S12       29.66F HX  96
PLEASANTON     MOSUNNY   91  69  48 SE12      29.67F HX  95
*LA GRANGE     PTSUNNY   93  71  49 S14G22    29.68S HX 100
*GIDDINGS      MOSUNNY   94  70  45 S9G18     29.70F HX  99
*GONZALES      PTSUNNY   89  73  59 S17G25    29.69S HX  97
$$

TXZ163>164-176>182-195>201-210>213-226-227-235-202300-
SOUTHEAST TEXAS

CITY           SKY/WX    TMP DP  RH WIND       PRES   REMARKS
COLLEGE STN    MOSUNNY   92  69  47 S13       29.69F HX  97
*BRYAN         MOSUNNY   92  70  49 S12G18    29.71F HX  97
*CALDWELL      PTSUNNY   90  68  48 S17G23    29.69F HX  94
*CROCKETT      MOSUNNY   86  72  62 SE7       29.74F HX  92
*BRENHAM       PTSUNNY   91  71  52 SE15      29.71F HX  97
HUNTSVILLE     MOSUNNY   90  68  48 VRB7G20   29.72F HX  94
CONROE         PTSUNNY   87  72  60 SE12      29.74S HX  93
HOUSTON BUSH   MOSUNNY   88  72  58 S14G22    29.74S HX  94
HOUSTON HOBBY  PTSUNNY   86  72  62 S20       29.76R HX  92
*HOUSTON SW AP PTSUNNY   84  74  70 S10G16    29.78R HX  91
PEARLAND       PTSUNNY   87  72  60 S14G24    29.79R HX  93
HOUSTON HOOKS  PTSUNNY   89  70  53 S14G21    29.74S HX  94
ELLINGTON FLD  PTSUNNY   88  72  58 S16       29.75S HX  94
SUGAR LAND     FAIR      88  76  67 S17       29.74F HX  99
*HOUSTON EXEC  FAIR      90  73  58 S17G25    29.75S HX  98
*CLEVELAND MUN PTSUNNY   85  76  73 S12       29.76S HX  94
*WHARTON       PTSUNNY   84  71  63 S13G23    29.76S
*COLUMBUS      PTSUNNY   85  69  57 S14G24    29.74S
*EAGLE LAKE    MOSUNNY   91  75  61 S17G28    29.73  HX 101
$$

TXZ214>216-236>238-202300-
THE UPPER TEXAS COAST

CITY           SKY/WX    TMP DP  RH WIND       PRES   REMARKS
*ORANGE        FAIR      86  79  80 S10       29.82R HX  99
PORT ARTHUR    PTSUNNY   86  76  71 S14G21    29.79R HX  96
GALVESTON      FAIR      85  78  80 S16       29.79S HX  96
ANGLETON       PTSUNNY   85  75  72 S17       29.78R HX  93
*BAY CITY      CLOUDY    86  78  76 S13G20    29.77S HX  99
PALACIOS       SUNNY     85  75  72 S17G26    29.75F HX  93
$$

TXZ229>234-239>247-202300-
TEXAS COASTAL BEND AND RIO GRANDE PLAINS

CITY           SKY/WX    TMP DP  RH WIND       PRES   REMARKS
VICTORIA       MOSUNNY   88  75  65 S18       29.73S HX  97
*BEEVILLE      CLOUDY    94  76  57 SE17G28   29.69S HX 107
ROCKPORT       SUNNY     87  77  72 SE13G23   29.73S HX  99
*PORT ARANSAS  MOSUNNY   83  79  87 SE10      29.74F HX  94
*PORT LAVACA   MOSUNNY   87  78  73 S17G24    29.74S HX 100
*INGLESIDE     MOSUNNY   86  79  80 S17G23    29.72F HX  99
CORPUS CHRISTI PTSUNNY   87  76  69 SE25      29.72S HX  97
CORPUS NAS     MOSUNNY   83  81  94 SE14G22   29.72F HX  97
*ROBSTOWN      SUNNY     88  75  64 S20       29.71S HX  98
ALICE          SUNNY     92  71  50 S16       29.69S HX  98
KINGSVILLE NAS PTSUNNY   88  77  69 SE17      29.70F HX 100
COTULLA        MOSUNNY   98  67  36 S9G21     29.64F HX 102
LAREDO         SUNNY     94  71  47 S17G25    29.66S HX 101
$$

TXZ248>255-202300-
DEEP SOUTH TEXAS

CITY           SKY/WX    TMP DP  RH WIND       PRES   REMARKS
BROWNSVILLE    PTSUNNY   84  76  76 S17       29.73S HX  93
PORT ISABEL    FAIR      85  76  74 S14       29.73R HX  94
HARLINGEN      MOSUNNY   85  76  74 S17       29.72R HX  94
*HEBBRONVILLE  MOSUNNY   88  69  54 S12G21    29.71S HX  92
MCALLEN        MOSUNNY   86  76  71 SE16G23   29.72R HX  96
*WESLACO       MOSUNNY   84  75  74 S14G23    29.71  HX  93
FALFURRIAS     MOSUNNY   89  76  64 SE9       29.70S HX 100
EDINBURG       PTSUNNY   85  74  68 SE14      29.72S HX  92
*ZAPATA        FAIR      90  70  51 SE14      29.69R HX  95
$$

TXZ213>215-236>238-242>244-246-247-251-254-255-202300-
CMAN STATIONS

STATION/POSITION TIME  TEMP    WIND        PRES    WAVE
                       AIR SEA DIR/SP/G            HT/PER
                 (UTC) (F)     (DEG/KT/KT) (MB)    (FT/S)
SABINE PASS      2130          170/ 11/ 18 1010.6
NORTH JETTY/GLS  2130          180/ 14/ 20 1007.5
EAGLE POINT      2130          170/ 17/ 20 1007.7
MORGANS POINT    2124   83 77  150/  7/ 13 1008.2
PORT O`CONNOR    2124   81 82  160/ 15/ 18 1007.0
PORT ARANSAS     2200   81 81  140/ 15/ 17 1006.6
MALAQUITE BEACH  2124   82 81  120/ 12/ 14 1006.5
BAFFIN BAY       2124   81 82  120/ 11/ 14 1006.7
PORT ISABEL      2124   83 81  150/ 16/ 21 1007.4
$$




USA.gov is the U.S. government's official web portal to all federal, state and local government web resources and services.